Flag for Switzerland Weather past 2 weeks in Weinfelden, Thurgau, Switzerland

Now
65 °F

Overcast.


Feels Like: 65 °F
Forecast: 49 / 70 °F
Wind: 1 mph from Southeast

Location: Konstanz

Current Time: Sep 3, 2015 at 4:04:17 PM

Latest Report: Sep 3, 2015 at 3:00 PM


Visibility: 19 mi

Pressure: 29.94 "Hg

Humidity: 68%

Dew point: 54 °F

Location of WeinfeldenLocation

Historic Weather in Weinfelden — Graph

°F

Weinfelden temperature yesterday

Maximum temperature yesterday: 70 °F (at 2:00 PM)
Minimum temperature yesterday: 58 °F (at 5:00 AM)
Average temperature yesterday: 63 °F

Past Weeks' High & Low Weather Summary

 TemperatureHumidityPressure
High92 °F (Aug 29, 5:00 PM)97% (Aug 21, 6:00 AM)30.27 "Hg (Aug 21, 6:00 AM)
Low53 °F (Aug 26, 7:00 AM)27% (Aug 31, 4:00 PM)29.70 "Hg (Aug 24, 8:00 AM)
Average68 °F69%30.01 "Hg
* Reported Aug 19 3:00 PM — Sep 3 3:00 PM, Weinfelden, Weather by CustomWeather, © 2015

Note: Actual official high and low records may vary slightly from our data, if they occured in-between our weather recording intervals... More about our weather records

Advertising

Weinfelden weather history for previous 24 hours

 ConditionsComfort  
Time TempWeatherWind HumidityBarometerVisibility
3:00 PM
Thu, Sep 3
65 °FOvercast.1 mph68%29.94 "Hg19 mi
2:00 PM64 °FOvercast.1 mph69%29.95 "Hg14 mi
1:00 PM63 °FOvercast.2 mph73%29.95 "Hg11 mi
12:00 PM63 °FOvercast.2 mph72%29.95 "Hg5 mi
11:00 AM63 °FOvercast.2 mph72%29.96 "Hg5 mi
10:00 AM60 °FOvercast.1 mph80%29.97 "Hg6 mi
9:00 AM59 °FLow clouds.2 mph85%29.96 "Hg5 mi
8:00 AM57 °FLow clouds.2 mph91%29.96 "Hg5 mi
7:00 AM57 °FPartly sunny.1 mph92%29.94 "Hg6 mi
5:00 AM58 °FOvercast.1 mph87%29.95 "Hg9 mi
4:00 AM59 °FPassing clouds.1 mph87%29.94 "Hg11 mi
3:00 AM61 °FOvercast.1 mph82%29.95 "Hg14 mi
2:00 AM61 °FOvercast.1 mph81%29.96 "Hg16 mi
1:00 AM62 °FOvercast.1 mph79%29.96 "Hg16 mi
11:00 PM
Wed, Sep 2
62 °FOvercast.1 mph74%29.97 "Hg19 mi
10:00 PM64 °FOvercast.2 mph69%29.97 "Hg22 mi
9:00 PM64 °FPassing clouds.3 mph70%29.96 "Hg12 mi
8:00 PM66 °FOvercast.2 mph64%29.96 "Hg19 mi
7:00 PM68 °FOvercast.2 mph56%29.95 "Hg19 mi
6:00 PM68 °FOvercast.2 mph59%29.95 "Hg19 mi
5:00 PM69 °FOvercast.2 mph55%29.95 "Hg16 mi
4:00 PM69 °FOvercast.1 mph60%29.95 "Hg19 mi
Weather by CustomWeather, © 2015

See weather overviewHow to use our weather pages